GFSNGP_700_rhum_168.txt.gz
RH
36 31 34 33 36 49 46 40 58 25 23 24 28 36 40 54 67 71 60 34 19 16 12 10 9 9 9 8 6 6 7 7 8 10 11 11 10 10 10 10 11 12 12 13
41 31 25 26 34 41 38 46 45 33 25 29 30 36 57 69 78 73 66 61 50 35 21 18 17 14 11 9 9 8 7 8 8 9 10 12 12 13 13 12 12 12 13 13
53 36 35 46 24 46 41 36 39 41 29 35 46 64 66 69 74 70 67 60 57 54 39 21 16 14 12 10 10 9 9 8 8 8 9 10 11 13 14 14 15 15 14 14
69 47 63 49 55 43 47 42 34 34 70 79 88 69 60 73 72 72 68 67 68 56 51 35 25 20 11 13 14 10 10 10 10 9 9 9 10 10 12 13 15 16 16 16
83 84 63 56 30 56 63 56 35 79 82 77 72 48 68 72 73 72 74 72 70 69 64 52 42 33 29 14 12 14 13 10 11 11 11 11 11 11 11 11 12 14 15 17
92 90 71 62 64 67 87 71 46 68 89 82 78 81 67 76 78 77 71 65 65 67 66 66 60 52 38 30 18 15 12 13 12 12 12 13 13 13 13 12 12 12 13 14
100 99 74 62 65 64 93 88 83 87 82 82 86 82 72 64 58 58 58 60 64 64 63 65 60 60 58 46 30 22 15 12 14 12 15 20 19 18 18 17 16 15 13 13
99 100 84 64 77 91 94 94 93 86 83 78 75 72 68 61 56 55 52 52 54 56 64 67 76 53 56 53 38 28 20 19 17 15 17 22 20 16 16 16 17 17 17 16
83 64 67 75 79 84 85 87 88 88 77 78 72 69 64 61 57 53 49 46 44 48 59 62 60 87 97 98 97 86 29 22 20 18 24 23 19 17 15 16 16 17 17 18
92 47 70 76 78 81 81 87 94 82 81 83 77 71 64 58 54 53 50 48 47 52 58 58 56 66 65 52 63 86 83 40 25 26 23 21 26 33 38 40 37 33 30 29
92 50 71 81 78 76 81 80 71 74 83 84 77 67 67 66 63 63 59 55 55 56 58 64 66 65 65 61 58 74 70 88 68 51 48 55 64 74 82 90 93 94 93 67
68 62 94 92 68 68 74 71 68 76 79 78 82 86 85 82 80 78 76 75 78 83 70 64 69 79 80 78 70 74 59 61 76 79 76 69 70 68 77 86 89 89 94 96
73 97 100 77 75 79 75 72 76 79 81 81 90 96 93 89 87 82 84 88 89 86 62 50 46 45 49 53 54 46 47 46 46 55 60 58 56 60 59 60 62 65 77 78
92 95 89 86 87 82 76 74 79 84 89 98 96 98 99 84 63 42 42 36 45 62 76 72 56 48 40 36 34 35 45 46 48 49 46 43 44 57 62 60 58 66 61 56
77 87 84 87 78 79 80 77 86 98 98 98 98 96 93 89 66 58 55 51 46 40 32 23 18 46 40 27 19 26 30 44 60 57 50 46 45 50 60 63 71 66 65 64
63 65 74 82 89 95 97 100 97 95 96 80 78 76 74 73 73 69 65 41 28 35 39 26 26 9 8 15 24 13 21 43 53 58 60 55 51 53 63 83 77 74 69 68
80 85 88 85 85 90 98 96 96 95 93 85 84 79 76 66 65 65 56 35 12 3 7 10 8 6 2 2 4 4 6 26 68 78 65 63 61 59 74 87 82 74 76 95
79 89 94 95 98 97 96 97 96 95 95 88 56 39 40 52 45 38 43 47 27 3 3 4 4 4 3 3 6 6 8 26 51 70 87 89 83 84 87 93 93 94 96 97
94 100 99 97 96 94 90 90 86 82 74 60 40 23 18 8 8 10 14 22 10 3 3 4 5 5 4 6 12 14 10 18 39 67 94 87 89 94 86 95 96 95 96 91
100 100 100 100 100 96 92 94 88 81 69 48 31 25 9 7 9 8 7 5 5 11 7 6 7 11 11 11 18 18 17 20 20 18 37 83 83 94 97 93 94 96 95 96
96 96 85 69 66 75 80 78 51 36 27 13 12 13 14 11 12 14 13 11 7 15 14 15 22 26 31 32 39 44 50 51 51 42 26 43 99 88 96 93 95 96 92 98
89 86 78 76 70 57 37 29 19 16 16 15 17 18 16 14 16 17 18 30 21 22 28 26 28 36 48 56 56 64 69 70 71 78 72 48 89 98 97 89 96 97 98 94
52 42 35 27 23 23 26 23 22 21 20 21 20 18 17 18 23 33 36 25 37 35 45 43 51 58 61 59 59 64 67 71 76 88 91 91 52 72 93 97 96 97 96 89
33 33 30 34 36 33 27 30 31 26 25 23 25 24 21 23 34 37 45 33 29 31 35 42 44 46 56 62 66 77 82 87 92 91 92 97 77 70 96 97 95 98 96 93
33 34 32 39 37 38 40 37 37 39 34 29 31 30 25 24 29 25 26 26 26 27 23 29 34 37 48 68 79 88 100 98 94 95 99 98 96 95 100 98 96 97 97 95
38 48 47 42 40 46 52 46 45 47 47 41 38 34 30 28 28 28 25 28 33 38 32 22 21 31 66 83 91 96 99 99 98 99 97 96 97 98 98 97 95 96 96 96
35 42 41 40 41 42 48 52 57 52 45 42 39 37 35 29 24 27 31 34 38 39 35 30 49 82 92 98 99 99 98 97 97 98 98 98 97 98 98 96 96 96 96 96

GFSNGP_700_rhum_171.txt.gz
RH
48 43 45 44 53 63 73 50 64 41 39 28 30 33 34 37 50 53 65 67 67 61 57 49 32 16 13 14 12 10 9 9 8 7 7 8 9 10 12 12 12 13 13 13
64 48 39 31 32 36 47 60 70 50 42 45 36 41 39 40 57 61 71 69 69 67 68 67 54 47 24 14 12 12 11 10 9 9 8 8 9 9 10 11 12 13 14 14
74 59 53 54 37 47 55 45 42 55 42 50 54 60 57 54 60 74 71 71 72 72 65 65 66 57 43 29 27 15 11 13 11 9 10 10 10 10 10 10 10 10 12 12
79 65 68 57 52 56 49 60 56 52 38 69 69 62 66 75 82 81 80 68 70 59 59 60 64 66 63 58 47 37 28 13 10 11 11 10 10 10 10 11 11 11 11 11
89 81 64 53 40 41 64 66 66 53 52 71 76 62 72 83 90 80 74 68 62 54 54 57 64 65 63 61 60 53 44 32 24 14 12 12 11 11 11 12 13 13 12 12
95 90 74 61 59 62 65 70 61 61 61 84 72 78 66 67 67 66 63 58 53 50 50 56 62 64 63 64 57 57 57 41 29 23 18 16 13 13 16 19 18 16 15 16
100 98 79 60 62 66 74 84 96 96 93 81 81 90 78 69 64 65 60 55 52 49 46 47 50 57 65 77 82 88 77 66 59 52 30 19 16 16 19 22 19 18 18 17
97 100 87 62 64 70 83 83 86 84 77 69 69 76 69 67 66 66 59 56 53 52 50 54 60 62 59 53 60 67 62 77 92 87 47 28 27 26 26 20 18 22 28 30
83 61 67 71 65 76 80 84 80 66 68 67 65 63 62 68 70 63 61 61 60 59 56 56 58 58 58 60 60 56 56 62 76 80 53 35 26 23 21 26 32 36 39 43
91 44 63 66 82 82 91 90 83 88 80 83 78 66 69 73 69 72 75 73 72 70 70 72 76 78 79 79 81 80 76 67 70 64 76 53 33 32 42 57 66 69 76 82
98 54 61 58 62 79 91 85 88 73 79 84 80 77 76 75 81 84 87 87 85 83 82 83 85 80 58 50 52 57 56 57 56 54 54 58 64 68 67 67 69 69 73 77
68 61 92 96 90 100 83 91 84 82 78 79 85 90 95 94 96 95 77 58 50 43 39 36 37 69 67 52 58 48 40 43 50 54 49 41 44 52 63 70 63 60 62 64
71 65 98 100 79 99 85 69 79 82 81 84 96 100 100 97 98 91 63 61 60 61 62 58 48 42 38 38 39 39 52 46 37 34 36 53 51 45 43 52 53 59 68 73
93 100 77 71 70 84 86 84 78 82 85 90 99 99 100 94 83 66 66 70 65 65 62 54 48 31 11 11 29 30 24 36 47 39 28 24 37 49 56 53 46 45 58 66
62 79 92 85 80 80 83 81 79 88 93 95 100 96 87 76 75 68 53 23 11 11 15 26 35 42 28 4 5 9 10 7 4 7 8 10 20 48 57 58 58 51 59 56
58 59 65 78 82 83 84 82 67 78 94 97 96 96 96 95 93 79 39 19 5 3 3 11 19 20 18 10 3 3 3 4 4 4 6 8 25 66 75 69 63 60 59 90
63 71 78 72 82 98 97 97 95 92 98 98 94 89 81 73 70 64 48 22 6 4 4 6 5 5 4 4 4 4 4 3 4 7 14 59 100 100 100 97 84 69 80 100
90 88 90 85 92 100 100 100 98 97 95 94 92 79 68 64 50 44 36 17 6 5 6 7 5 5 6 7 8 8 9 7 6 9 19 24 39 99 99 98 97 97 96 95
88 94 98 100 100 98 99 96 97 96 90 72 64 54 42 32 25 21 13 10 8 8 8 9 10 9 9 11 18 20 19 20 16 16 30 40 51 40 60 72 98 97 98 97
98 100 98 96 97 95 92 94 87 73 60 39 24 19 17 16 16 15 15 14 12 12 13 12 12 14 16 18 27 29 34 34 39 34 41 58 58 65 61 56 95 98 97 82
97 95 94 94 92 91 75 45 43 50 42 29 26 22 23 22 21 20 20 20 17 16 17 16 15 17 25 31 39 38 41 52 55 62 65 71 73 76 78 96 84 53 98 96
95 85 62 58 53 57 48 41 39 37 34 31 31 32 30 27 26 27 27 28 23 18 18 17 17 20 22 24 27 36 42 50 54 62 65 71 76 81 90 98 98 80 95 98
36 35 34 33 32 30 32 35 33 31 33 35 38 42 37 36 38 36 33 32 25 19 21 20 22 25 28 32 28 26 32 36 48 68 74 84 89 88 91 98 98 95 68 80
38 35 32 29 29 29 30 38 51 48 43 39 45 46 43 43 46 43 37 35 29 24 22 20 22 31 38 36 30 22 23 37 58 77 87 91 97 98 99 100 96 97 100 99
31 30 29 28 24 20 20 20 22 30 37 36 39 44 46 50 45 41 39 39 32 24 22 25 32 37 37 35 34 46 71 87 91 97 98 97 96 97 97 96 96 98 100 100
23 20 19 19 20 23 31 43 44 38 41 48 43 34 34 44 45 46 43 33 24 23 28 32 34 34 32 33 62 98 96 96 97 96 96 96 96 96 97 97 96 98 100 98
26 27 27 29 30 36 43 50 61 50 44 43 42 36 48 49 48 47 45 40 33 31 30 28 28 29 30 34 87 97 96 96 96 96 96 97 97 97 98 98 97 97 97 96

GFSNGP_700_rhum_177.txt.gz
RH
64 66 72 73 69 69 69 62 59 45 44 40 43 54 45 47 67 62 56 56 61 66 67 70 66 61 56 53 56 61 64 61 52 39 32 30 18 12 12 12 11 11 11 11
65 67 63 56 50 56 57 57 62 47 46 50 53 56 51 49 64 64 56 59 68 64 58 62 61 53 50 52 59 62 65 67 64 59 58 54 40 32 20 12 12 12 12 12
68 63 56 49 46 52 48 44 44 54 50 56 59 60 51 61 69 75 59 55 62 67 54 56 56 52 50 48 51 62 65 64 62 64 66 60 56 47 34 27 21 16 14 13
74 62 77 42 45 48 53 49 55 54 57 63 64 62 59 72 68 64 70 68 53 53 56 59 55 52 51 51 51 52 57 64 72 73 72 78 84 74 59 41 32 24 18 16
81 83 49 37 48 56 57 46 54 56 56 64 67 71 64 76 72 74 65 53 56 57 61 59 58 58 56 56 57 58 58 58 57 58 62 60 59 68 85 94 72 42 22 20
97 93 87 41 45 55 64 56 53 56 58 66 79 85 70 70 71 74 66 61 56 67 68 68 69 68 68 67 68 68 69 69 69 70 69 70 66 64 73 74 55 36 31 32
90 100 76 47 56 62 69 59 70 74 81 91 95 90 79 67 83 86 64 58 64 72 74 74 74 74 75 77 76 74 72 73 72 67 65 71 72 67 63 62 62 63 42 30
82 100 76 53 57 61 68 72 78 87 89 87 86 87 91 91 91 85 72 72 82 79 80 82 85 83 72 67 60 52 51 56 65 69 63 55 51 49 48 49 51 52 67 49
59 50 50 58 64 69 74 78 82 87 94 91 93 95 92 96 85 79 72 79 85 87 90 92 75 60 58 50 47 49 51 47 42 38 33 27 37 53 56 60 46 39 46 52
64 62 65 76 82 81 86 92 92 91 80 100 100 100 96 100 83 81 78 84 92 98 97 65 54 55 59 54 43 37 35 30 27 26 23 22 16 12 13 28 41 44 46 38
72 72 66 70 77 74 76 85 99 98 97 93 99 96 97 92 88 82 86 90 98 99 96 77 64 67 43 40 46 46 36 27 21 16 11 5 10 15 18 14 5 14 25 26
57 62 75 67 83 89 87 90 97 98 99 99 99 99 91 90 90 92 87 92 99 96 86 80 71 63 51 29 16 12 9 8 15 19 16 10 4 3 6 14 13 4 4 11
57 69 85 99 100 100 100 98 93 99 97 96 98 94 96 100 100 100 100 100 96 92 77 77 57 22 16 14 10 7 6 5 6 7 15 21 21 17 12 4 4 3 3 4
64 60 56 61 70 81 73 75 84 90 99 100 100 100 97 93 95 96 96 97 96 90 79 29 27 20 17 18 17 14 10 6 5 5 5 6 6 6 6 5 4 3 4 5
68 81 72 68 76 100 100 100 97 98 94 99 100 99 98 94 96 97 97 96 78 48 32 34 28 28 21 21 17 14 10 7 7 8 8 8 8 8 9 10 11 11 9 8
60 68 78 73 72 72 58 62 87 96 100 99 97 98 100 100 97 96 95 77 59 71 68 44 28 24 20 19 18 16 16 15 13 13 13 12 12 14 14 14 15 15 16 25
70 76 86 87 84 70 81 97 98 97 99 100 99 96 95 95 96 95 92 92 93 81 52 37 21 24 23 22 24 28 25 21 18 16 15 16 16 15 15 16 18 23 26 40
69 76 88 91 99 100 99 99 97 94 84 79 78 79 78 83 82 75 53 26 26 32 34 27 29 27 30 30 31 33 33 31 24 20 19 18 17 17 20 19 23 35 49 55
97 97 98 97 94 83 73 60 46 42 40 31 27 36 41 35 25 21 18 20 18 15 12 25 32 37 38 36 32 31 33 29 27 24 20 20 22 25 28 22 24 39 48 66
92 93 94 88 62 50 56 47 30 29 25 21 18 18 17 16 16 16 17 18 18 20 31 35 38 43 44 41 36 35 36 34 28 21 22 28 32 32 30 36 36 40 51 70
74 57 46 43 46 39 31 28 23 22 19 15 16 16 16 17 18 21 28 28 18 26 37 40 48 50 55 47 42 42 42 30 23 28 31 31 32 32 43 90 93 88 78 84
39 35 33 31 29 27 25 24 24 21 17 16 18 20 24 25 28 29 31 38 33 30 45 47 51 57 58 50 47 48 41 34 29 31 30 30 34 35 86 96 94 99 100 100
32 30 31 30 32 29 23 20 24 24 20 18 23 25 31 35 37 36 32 32 43 52 53 46 48 53 54 53 52 48 45 42 35 28 26 35 41 65 97 97 98 98 97 96
39 38 38 32 33 31 24 20 29 33 26 22 34 47 55 59 57 52 55 50 49 53 54 53 53 54 58 57 52 49 41 34 25 22 25 45 57 96 96 97 97 97 97 98
51 44 40 38 38 38 35 32 44 38 29 25 42 43 47 57 66 57 61 60 61 60 58 56 59 60 57 52 46 42 30 25 24 27 50 60 95 97 97 97 97 98 97 97
40 45 51 51 44 40 41 46 48 42 34 33 32 31 32 42 50 58 61 66 70 68 67 64 60 56 53 44 36 30 30 34 38 55 66 95 98 98 97 96 97 97 97 97
46 45 44 40 34 37 40 45 48 42 36 43 44 32 35 42 53 56 57 55 58 60 59 58 55 52 47 41 34 33 44 56 66 71 96 97 97 97 97 96 96 96 96 97

GFSNGP_700_rhum_183.txt.gz
RH
53 56 64 62 62 68 70 66 67 44 53 38 52 54 55 56 54 57 56 62 66 58 38 41 50 43 39 45 50 54 53 52 52 53 61 65 66 66 70 72 70 70 74 73
37 40 46 43 38 43 48 58 57 47 44 52 49 59 59 61 61 62 59 63 71 65 49 53 60 46 40 52 58 57 56 55 56 59 60 62 65 68 65 60 60 59 59 63
58 49 55 38 26 29 34 37 45 47 42 48 50 55 58 60 64 66 61 65 75 72 53 50 64 56 44 55 64 66 64 62 62 64 66 66 66 66 66 66 68 68 66 66
74 60 72 23 27 23 33 29 42 42 46 54 53 54 55 61 66 68 70 76 85 76 66 55 49 54 57 64 70 72 73 72 71 70 68 65 62 62 64 66 62 60 60 57
79 81 44 22 28 30 41 33 43 43 52 51 52 57 55 68 75 76 81 88 82 80 68 60 52 58 67 76 77 78 79 78 72 66 59 53 49 47 45 41 35 29 27 32
91 90 82 25 30 44 47 51 51 57 60 63 65 67 59 74 88 90 92 94 90 81 77 73 61 64 73 82 85 85 79 65 56 52 49 49 46 36 28 25 22 20 19 15
97 99 64 30 42 53 64 54 64 68 71 81 85 83 75 81 84 80 86 97 94 90 86 82 72 74 83 89 89 86 81 65 55 53 53 54 51 44 39 36 34 31 26 15
89 99 74 43 47 55 58 65 71 88 97 98 96 97 95 91 90 86 90 88 92 90 87 88 91 96 98 100 95 93 85 68 59 57 53 48 40 24 13 10 11 12 14 16
46 38 40 45 53 68 72 77 86 89 99 99 98 94 95 91 86 85 90 91 89 84 87 94 100 100 98 98 97 98 91 80 72 66 64 30 13 14 16 16 16 17 19 18
45 45 51 62 68 74 80 86 91 100 100 92 82 81 76 70 85 98 95 92 94 90 90 96 99 99 100 99 96 92 87 84 81 40 15 16 19 21 23 24 24 24 23 22
50 62 62 71 73 76 80 87 89 91 88 72 62 56 55 60 75 82 95 99 96 92 89 91 95 100 98 97 94 90 89 66 25 20 27 28 24 23 22 24 28 30 30 27
55 71 73 64 69 80 94 99 100 79 73 68 57 71 80 79 89 100 98 100 99 96 98 99 97 97 98 97 93 85 80 54 38 35 37 36 29 39 39 35 30 25 19 14
58 69 91 100 100 100 100 96 90 71 59 59 71 80 85 78 86 99 96 93 96 94 92 88 85 85 84 97 95 91 75 55 55 47 40 50 51 44 29 24 23 20 21 20
86 96 72 73 81 94 93 79 63 57 67 84 92 90 71 71 84 87 86 83 78 73 68 59 54 57 74 79 81 82 82 79 74 74 69 56 45 36 30 27 29 29 30 29
64 77 86 95 91 80 60 51 90 100 100 100 98 89 78 73 70 64 59 48 42 35 33 29 27 26 27 24 40 68 86 88 80 66 64 53 42 37 31 30 32 36 38 29
89 93 77 70 59 60 77 97 100 96 94 89 80 75 77 75 69 64 52 34 22 22 18 16 14 15 17 17 19 20 23 31 38 41 42 40 41 44 44 36 35 39 39 25
78 84 81 74 73 89 100 100 98 96 88 90 83 72 56 46 34 28 23 19 17 15 12 12 13 14 14 15 16 17 17 19 22 29 42 40 46 54 49 43 43 43 36 22
75 78 98 94 94 91 87 77 68 59 62 50 38 40 35 28 28 23 20 19 16 14 12 12 14 16 18 21 24 27 30 32 32 33 33 43 61 63 54 48 47 41 34 30
98 92 85 63 48 41 37 32 27 24 25 25 25 24 24 24 23 24 24 24 21 18 15 14 17 20 25 32 36 41 42 44 46 50 59 64 63 57 53 50 41 32 30 28
69 41 30 27 33 31 24 23 26 28 27 30 30 28 29 28 29 31 34 36 30 21 20 17 24 30 38 44 49 51 54 54 53 54 60 62 59 55 51 48 42 40 28 21
32 29 26 24 23 23 24 24 28 29 26 28 44 46 47 46 43 43 44 44 32 26 30 25 27 33 46 53 55 56 56 55 55 56 57 57 56 54 52 48 38 27 26 28
30 27 25 24 22 20 19 21 21 21 23 29 31 37 47 53 52 53 53 50 40 34 41 39 33 37 55 63 62 60 58 59 58 58 57 57 53 48 41 36 30 36 48 62
26 28 28 27 22 20 20 20 22 27 33 38 45 47 47 48 46 50 52 51 55 42 42 34 32 39 51 56 57 58 59 61 63 64 61 57 52 46 38 32 39 52 68 92
26 24 24 26 25 23 24 26 37 35 40 41 45 50 53 52 50 47 54 57 58 54 46 40 39 36 34 41 48 48 44 46 57 65 65 60 52 43 40 49 66 79 96 96
22 27 30 27 28 30 34 35 38 35 34 35 37 40 42 43 48 50 60 64 61 58 53 51 51 46 41 32 29 31 37 39 42 49 48 46 44 52 71 78 92 97 96 96
37 32 30 30 35 35 36 34 32 30 31 29 28 31 34 36 40 42 40 44 52 53 55 55 42 37 36 28 26 28 31 36 44 46 48 52 72 81 84 97 97 97 97 97
40 38 38 35 30 32 34 37 47 41 36 38 38 31 39 41 69 87 87 90 81 58 47 42 36 37 33 30 36 47 56 55 57 59 65 76 79 87 97 97 97 97 96 96

GFSNGP_700_rhum_186.txt.gz
RH
43 52 56 52 52 59 61 58 62 32 42 29 49 52 51 56 60 61 62 62 62 61 63 64 69 55 42 39 44 41 52 58 58 57 57 58 58 60 61 62 62 62 62 62
38 32 42 36 36 38 45 52 48 37 35 46 50 50 54 58 55 53 59 65 68 66 66 71 71 61 49 42 41 42 52 63 66 66 66 66 66 67 66 65 64 64 62 62
56 42 50 32 13 23 28 32 35 38 31 44 46 53 52 54 54 57 62 68 69 72 74 78 73 62 54 47 48 55 62 69 70 71 71 70 68 65 61 57 56 57 59 57
67 59 73 16 22 31 31 19 31 33 39 46 57 52 50 56 58 62 72 75 78 80 78 72 72 64 53 49 48 57 67 74 77 78 75 70 64 58 52 47 43 37 31 26
72 82 42 17 16 21 24 26 33 38 44 56 55 50 53 58 60 67 70 74 79 75 74 74 72 66 63 60 55 63 73 81 83 80 70 59 55 51 50 48 38 30 28 27
90 90 83 22 21 26 41 44 41 51 54 55 52 61 62 58 66 67 72 76 82 87 86 80 81 78 73 70 67 79 89 88 85 85 80 68 59 56 55 54 50 46 41 34
96 96 63 20 30 42 59 45 52 54 58 63 68 78 79 81 83 80 73 76 79 79 80 86 88 83 81 84 86 85 90 94 93 92 87 81 74 65 62 59 40 25 18 12
98 100 78 31 38 44 44 51 56 60 67 80 89 89 86 89 85 77 66 62 64 61 70 80 88 86 82 89 95 95 96 96 96 95 94 88 81 78 64 34 14 14 16 18
41 30 30 33 38 47 56 65 70 77 86 89 90 90 84 78 69 62 60 61 65 78 92 95 94 84 81 90 96 97 97 96 94 92 93 93 92 55 20 15 16 19 22 24
46 33 37 45 54 59 73 84 89 91 92 90 87 82 74 72 64 55 58 67 87 86 95 94 94 93 98 100 97 95 92 95 100 97 96 91 47 21 18 26 27 26 28 38
33 30 43 56 64 75 84 87 91 93 99 100 97 82 71 59 55 63 70 78 79 71 82 92 91 95 98 98 93 84 80 81 81 87 90 92 84 48 30 32 33 34 48 58
35 48 62 69 86 84 82 87 98 100 97 97 91 68 57 55 58 66 75 72 74 84 86 83 84 80 71 62 50 39 34 36 42 46 52 59 65 65 68 72 66 73 71 50
55 86 94 89 100 100 100 100 94 86 90 80 63 57 62 66 86 86 77 75 76 70 66 57 42 30 23 25 25 26 28 32 40 46 57 66 64 70 66 66 68 62 56 45
98 94 97 96 100 100 100 98 85 83 67 48 47 69 81 83 84 78 71 68 65 61 60 50 42 33 17 16 15 16 19 20 24 23 32 44 48 46 48 48 44 46 42 38
95 96 96 96 95 98 96 85 78 63 73 83 88 89 97 89 79 74 70 49 37 34 33 27 25 22 15 12 11 11 11 11 12 13 15 16 17 17 18 22 28 35 37 44
96 97 98 97 96 96 97 97 97 96 92 85 72 78 76 73 72 64 54 31 33 31 29 25 20 17 14 12 12 12 12 14 18 21 22 22 26 27 28 34 41 56 60 56
96 95 94 96 99 100 94 73 60 55 53 44 37 30 26 25 26 25 24 24 24 23 22 21 19 18 16 16 15 15 18 21 27 34 39 41 46 49 55 62 66 68 63 55
96 96 96 94 85 70 65 58 41 31 27 25 24 22 21 24 26 28 29 31 29 28 26 23 25 26 22 18 19 25 28 31 36 42 46 48 50 54 58 62 62 59 57 55
95 94 88 85 61 50 37 29 22 21 21 20 18 18 20 22 23 26 33 38 38 36 30 33 33 33 28 22 26 24 30 35 41 48 51 51 50 52 53 55 58 58 53 46
69 49 35 33 28 23 22 21 22 22 20 19 19 19 19 20 24 30 34 35 35 39 41 39 42 42 36 30 35 32 34 41 48 57 60 60 59 60 60 58 57 54 49 42
45 31 27 26 24 22 24 27 27 25 22 20 18 20 25 26 26 31 38 44 34 42 42 41 56 54 43 39 41 37 37 44 56 66 64 62 60 60 61 60 56 53 48 42
29 27 25 25 26 26 24 24 23 26 24 21 24 32 38 36 40 44 44 48 48 45 43 40 46 56 52 45 38 36 36 34 41 49 52 50 43 42 48 57 57 54 47 47
29 28 27 28 28 24 22 25 30 29 28 36 39 41 42 41 40 43 43 41 44 38 39 42 52 63 63 55 47 47 46 45 41 32 29 31 37 37 40 44 46 47 59 77
34 32 30 27 25 25 34 32 31 31 34 34 31 26 28 31 28 28 33 35 41 44 42 41 51 67 73 66 63 53 43 42 40 33 30 31 34 40 47 49 55 78 83 96
28 26 26 28 33 38 38 35 34 31 31 26 21 24 31 32 43 39 37 37 40 43 63 72 67 60 70 76 69 49 40 38 33 32 39 46 52 52 56 70 80 86 97 97
27 31 34 37 43 44 50 57 55 45 38 32 26 27 28 36 64 62 49 49 63 85 88 83 85 98 100 97 72 55 47 38 35 53 65 62 64 68 74 77 89 97 98 97
37 38 42 42 44 53 55 58 58 50 48 49 45 33 41 71 85 93 96 95 93 87 85 87 90 93 99 94 71 53 50 53 71 77 74 73 74 73 72 93 97 98 97 98

GFSNGP_700_rhum_189.txt.gz
RH
35 40 44 41 41 52 59 52 56 28 34 19 37 47 45 45 53 50 46 46 47 52 58 62 64 66 68 63 52 40 37 36 38 53 65 69 70 69 68 67 65 64 63 62
16 18 20 26 32 30 35 45 52 37 26 28 38 41 42 49 48 44 41 45 51 57 64 69 70 64 57 53 51 45 41 40 43 50 62 69 73 73 70 64 59 55 51 49
32 38 47 29 9 12 15 16 26 35 22 35 36 40 44 51 48 47 50 53 59 64 64 65 65 58 52 51 47 44 43 44 46 56 65 73 76 73 68 61 54 48 42 34
67 51 76 15 11 14 16 16 19 23 27 31 38 38 46 50 50 50 57 62 68 72 72 68 67 66 59 57 53 49 48 51 54 61 72 80 80 78 71 60 56 51 49 44
68 77 36 15 16 13 14 18 21 23 26 36 37 40 48 52 52 55 58 60 63 62 57 56 58 54 54 56 54 53 57 62 65 66 72 79 82 85 81 72 61 57 58 54
87 91 84 18 14 20 23 31 23 31 34 37 41 47 46 48 55 58 60 62 66 63 64 64 63 58 66 67 60 68 68 79 83 83 84 88 91 89 88 83 72 68 65 64
95 94 68 28 25 23 42 26 36 41 46 50 52 54 59 63 67 71 67 67 63 62 57 53 55 64 73 68 76 73 82 89 92 93 91 91 89 91 91 90 86 83 81 53
73 99 84 21 27 33 29 37 41 48 52 57 60 66 72 79 77 67 62 62 61 56 53 54 55 62 77 78 84 81 76 85 92 89 86 89 88 90 90 91 88 85 34 16
34 27 25 26 32 39 44 49 57 65 68 74 77 84 86 81 74 69 69 66 58 51 57 71 74 66 73 88 84 74 80 86 84 81 80 82 79 76 73 82 83 67 38 22
41 36 34 38 41 42 46 64 70 77 83 86 94 92 87 71 70 77 68 55 55 62 63 72 84 71 70 81 86 86 86 77 58 42 30 25 24 34 39 40 51 63 76 78
59 54 47 44 42 49 58 68 79 93 99 98 100 95 78 75 81 68 57 57 63 72 70 67 72 79 87 88 74 42 27 23 24 25 25 22 20 19 22 31 60 64 63 73
54 59 67 64 66 70 80 83 81 88 97 97 96 95 88 81 65 60 65 79 82 79 73 71 64 61 50 43 32 32 35 30 22 17 14 12 12 11 18 20 23 31 42 55
75 81 83 85 81 83 93 95 96 97 96 96 96 90 75 51 49 56 78 85 72 66 67 65 63 62 50 26 24 27 26 25 19 14 11 10 9 9 9 8 11 11 14 17
98 96 94 94 97 96 97 97 96 96 96 95 95 71 64 66 69 75 82 82 76 76 73 54 50 56 45 31 34 31 22 17 14 12 12 12 14 15 17 18 18 17 18 25
94 94 96 97 98 97 97 96 96 96 95 96 90 77 66 63 56 51 46 42 45 45 46 39 35 29 23 23 22 20 19 17 15 15 14 17 22 28 34 36 37 38 35 35
98 97 97 97 97 96 96 94 94 91 91 74 66 59 42 28 27 29 26 23 22 22 20 18 16 18 23 24 24 23 22 20 21 19 22 24 29 36 42 46 46 46 48 54
98 97 97 97 96 96 96 96 93 83 67 48 34 21 20 19 18 17 17 17 18 17 18 19 21 26 33 34 36 34 31 27 26 23 26 32 38 47 51 51 51 51 51 54
96 95 95 94 93 90 83 69 61 53 40 23 22 22 21 20 19 18 16 17 16 16 15 16 21 29 36 41 44 44 40 35 33 26 27 32 42 50 56 60 58 56 54 54
95 96 84 63 48 36 32 24 25 25 22 25 26 24 23 22 20 18 17 18 16 16 19 35 34 33 43 47 47 50 50 48 45 39 36 33 34 46 59 62 60 55 52 54
66 60 32 29 26 25 23 26 28 25 24 23 22 20 20 21 22 23 31 31 22 21 35 38 43 45 46 46 48 54 63 60 55 49 41 36 34 35 39 44 48 43 39 38
35 31 31 33 32 31 31 30 29 27 26 21 21 23 28 26 25 31 31 32 21 31 33 31 38 39 38 38 39 50 71 70 63 54 47 45 45 41 38 30 26 29 33 36
41 40 42 42 41 37 34 31 27 23 24 28 31 30 31 30 32 31 25 26 24 25 28 27 28 33 37 39 41 52 68 72 70 63 58 49 40 36 35 27 27 32 41 48
42 40 35 30 25 23 21 21 26 32 39 40 38 36 36 33 28 29 22 24 32 28 42 40 35 36 43 42 47 49 51 66 74 74 63 50 39 36 30 32 43 54 55 63
30 28 25 22 23 26 28 27 34 42 47 45 44 46 49 45 31 29 34 31 31 45 61 58 54 54 63 72 82 85 88 81 84 82 62 49 41 34 43 62 62 66 74 80
30 28 26 27 32 33 38 40 42 42 44 43 45 44 44 44 45 32 34 40 68 88 86 82 96 100 100 98 99 99 99 100 100 98 70 49 42 52 68 73 77 76 78 96
34 32 35 40 48 53 57 56 51 36 36 36 35 36 34 37 41 46 63 87 93 95 99 100 99 97 95 93 92 96 98 98 96 77 65 62 78 81 82 81 76 82 97 97
47 51 53 54 53 62 62 54 38 31 34 49 46 39 52 66 86 96 98 97 97 95 98 99 95 94 91 90 93 95 94 92 96 94 94 92 89 87 80 75 84 97 97 97